Wind_Speed
17 21 25 28 28 26 32 36 28 25 27 24 32 32 28 21 13 18 24 22 21 20 19 12 12 12 11 9 9 11 12 10 10 12 14 18 23 26 28 29 30 31 31 30
19 18 22 29 28 30 37 39 42 31 36 28 25 22 27 30 28 22 20 18 22 22 20 22 16 15 14 14 12 11 12 12 14 16 17 17 21 23 25 26 27 28 30 30
9 3 13 21 31 26 36 41 46 37 31 20 20 23 28 28 28 29 25 30 24 22 23 24 23 21 18 17 16 17 17 18 19 19 22 21 23 25 25 26 28 29 30 31
14 16 9 33 23 15 26 29 34 40 33 27 24 18 23 29 33 36 33 31 34 27 30 25 27 28 25 24 23 20 20 20 22 23 24 26 26 28 28 30 31 32 33 36
7 12 23 29 20 18 22 25 20 32 39 43 41 40 36 30 27 28 28 25 26 30 31 32 29 30 30 27 25 24 25 26 26 27 29 30 31 32 33 33 34 36 37 40
11 9 6 8 12 14 19 28 12 7 12 18 24 39 49 35 28 27 28 27 31 28 31 31 31 32 32 30 29 28 29 28 26 24 24 24 25 28 31 34 35 37 39 29
26 16 18 19 17 13 11 18 11 7 6 12 18 23 22 27 37 25 26 29 35 35 34 33 32 35 33 33 31 30 29 26 23 22 21 22 23 24 26 27 27 24 24 26
24 14 13 10 15 12 14 21 15 7 8 13 15 16 12 24 23 23 22 22 27 35 31 35 36 34 34 33 31 30 27 23 23 21 21 22 24 25 25 23 21 23 26 29
12 8 12 14 21 17 19 17 18 16 5 15 18 24 19 19 19 21 16 16 14 19 28 28 30 32 31 28 25 23 24 24 23 22 22 23 23 24 24 24 25 26 27 27
21 24 29 24 19 20 21 18 21 16 16 11 15 19 27 22 20 21 20 17 15 11 19 21 21 20 20 25 28 31 26 21 21 21 21 22 23 23 24 24 24 24 24 26
24 25 21 18 23 17 15 16 18 15 14 21 11 13 21 23 23 27 22 14 23 29 31 32 36 37 29 25 27 21 20 19 19 21 23 23 21 20 20 20 20 20 22 25
26 25 21 20 17 17 22 16 16 12 12 17 24 5 18 25 22 15 13 20 24 23 18 20 19 20 18 21 18 16 18 19 23 19 18 18 17 17 17 18 21 23 25 27
24 19 22 22 23 22 21 20 16 11 9 18 22 10 7 5 9 11 21 15 18 17 19 20 18 18 19 21 18 16 18 17 18 18 16 16 17 20 22 25 26 26 27 29
16 17 21 15 21 20 19 17 17 9 8 9 14 10 13 4 7 4 6 11 14 17 12 19 29 24 19 14 16 17 18 20 18 15 16 19 22 24 24 22 22 23 26 29
21 22 21 21 22 20 16 15 16 15 9 10 9 7 8 7 8 4 9 7 5 6 5 9 9 11 14 14 12 14 15 17 16 18 21 22 20 18 20 22 24 28 32 35
16 18 19 20 19 18 17 17 17 18 16 16 13 11 9 9 14 12 7 12 14 15 18 17 9 11 12 12 15 16 16 16 18 19 17 16 17 20 23 26 29 32 33 35
27 26 26 22 23 20 20 19 18 19 17 15 13 10 12 12 14 18 18 17 16 20 18 16 14 12 14 17 16 14 16 16 15 14 16 19 22 25 27 28 30 32 35 36
30 31 31 27 26 24 25 22 20 14 18 17 16 14 13 12 11 12 10 9 10 10 11 15 17 18 15 13 14 14 13 12 15 18 21 23 25 26 28 30 31 32 34 36
29 30 28 26 24 26 24 26 22 17 16 15 17 14 12 12 13 12 11 12 13 15 16 17 15 13 12 12 12 11 13 16 19 21 22 24 26 27 28 29 31 33 35 36
27 26 25 22 23 24 22 26 23 20 19 17 19 17 14 13 14 17 17 17 16 15 12 11 10 10 9 10 11 13 16 18 19 21 23 24 25 27 29 31 32 33 34 34
18 19 19 21 23 24 22 27 25 27 29 24 24 19 18 16 19 22 16 14 12 10 9 8 7 8 9 11 14 15 16 18 20 21 22 24 26 28 29 30 31 32 32 32
13 12 13 17 18 24 28 28 29 28 27 26 22 20 19 19 19 15 13 10 8 7 6 6 7 8 11 12 13 15 17 19 20 21 22 25 26 27 28 29 30 29 29 28
13 12 12 7 10 18 23 28 27 26 27 24 21 19 18 15 13 11 9 8 8 7 4 6 9 10 11 13 14 16 17 18 20 22 24 25 26 27 28 27 27 27 27 27
10 10 8 7 7 11 14 20 21 20 18 20 19 18 14 11 11 10 9 6 1 5 7 8 9 10 12 14 15 16 18 19 21 22 24 25 26 26 25 25 25 26 26 25
6 4 5 5 8 12 16 19 19 18 16 15 15 15 12 9 7 3 2 4 4 5 6 8 10 12 13 15 16 17 18 20 21 23 24 24 24 24 24 24 25 25 24 24
9 11 15 17 17 19 20 21 19 20 17 13 11 9 7 4 4 2 3 4 4 6 7 9 11 13 14 14 16 17 19 21 22 22 22 22 23 24 24 24 25 24 23 23
20 21 22 23 23 22 21 18 14 12 11 9 7 5 4 1 2 3 3 4 5 7 9 11 12 13 14 15 17 19 20 20 21 21 22 22 23 24 24 24 24 23 23 23
Wind_Direction
268 266 260 275 296 286 259 253 250 259 257 257 259 253 262 264 267 231 220 221 221 222 224 222 226 224 227 221 220 213 204 210 224 227 229 235 238 247 252 253 257 255 257 261
299 281 264 268 280 284 269 263 264 268 263 258 260 256 244 251 256 249 224 232 233 224 230 233 231 228 218 222 217 219 227 235 238 243 237 244 244 245 253 258 260 260 263 267
279 297 266 268 252 280 274 267 259 250 257 253 250 257 250 247 252 251 249 235 253 248 243 236 233 223 223 224 226 233 239 242 242 249 245 255 260 256 261 265 266 267 268 271
267 290 245 258 244 290 292 265 266 257 253 247 241 237 246 249 254 257 255 249 235 254 242 233 236 225 222 228 231 235 244 245 244 245 252 258 262 260 265 271 269 270 272 275
251 256 273 266 244 274 323 272 268 266 267 261 257 258 247 243 254 254 241 242 232 239 236 239 230 231 226 227 237 240 249 258 256 251 253 257 261 266 269 271 272 273 276 277
246 266 265 317 239 266 277 291 284 279 280 261 262 257 254 247 252 244 235 238 239 234 238 226 230 230 229 230 239 242 253 258 257 256 256 261 266 270 270 271 272 271 271 272
239 243 268 282 287 280 256 279 263 293 282 283 275 260 260 238 231 242 231 235 235 236 236 227 233 229 228 232 238 244 254 254 252 253 258 263 268 273 276 276 276 271 263 258
230 239 260 287 299 289 299 287 300 325 351 289 264 240 234 220 232 227 232 240 236 230 230 224 230 227 228 230 236 247 250 250 256 259 265 271 275 280 282 280 273 264 261 263
226 247 220 306 300 328 340 329 307 298 306 305 253 238 243 227 225 220 238 234 232 221 225 233 224 220 220 228 236 247 250 249 254 262 269 276 282 282 281 277 272 271 273 278
263 266 266 285 272 291 291 321 328 318 300 286 247 249 228 219 211 216 217 227 242 235 221 212 213 224 238 246 247 243 243 251 258 266 275 280 280 279 275 272 272 274 274 282
264 270 285 281 279 285 277 306 318 330 289 271 229 222 223 221 223 224 222 248 246 240 234 233 233 231 220 232 237 239 246 258 270 283 287 285 285 283 279 276 278 279 281 285
271 291 296 279 268 287 303 308 308 289 315 289 299 244 222 230 209 211 223 225 218 199 198 211 216 217 218 223 232 255 266 279 282 285 288 288 287 287 287 287 289 290 290 288
285 277 279 283 285 286 297 305 302 286 288 309 310 293 252 277 149 185 202 188 192 200 214 223 230 237 243 258 275 287 290 291 294 298 300 304 304 305 304 301 296 293 292 292
282 285 289 288 292 283 285 299 293 291 311 328 301 285 279 280 347 21 235 215 238 241 248 249 254 263 258 242 276 278 291 300 305 306 306 305 304 300 299 298 298 300 300 300
260 277 280 272 274 277 267 286 283 258 257 293 299 286 299 273 236 301 338 262 249 283 290 288 298 279 265 262 282 294 289 295 294 296 298 298 298 300 301 304 305 305 305 306
238 245 270 274 278 261 253 268 285 262 251 261 278 248 261 263 260 266 296 305 279 283 282 267 257 251 253 263 282 267 264 282 292 295 297 301 305 307 307 306 307 308 309 308
274 267 267 272 269 264 247 250 264 259 238 248 254 275 288 269 256 247 249 253 246 247 230 231 241 245 267 275 262 272 284 290 296 302 306 308 309 309 310 311 312 311 310 311
266 262 266 267 259 259 249 238 246 257 237 246 252 259 263 253 242 243 248 252 248 256 254 274 268 259 259 267 276 282 288 296 304 306 308 310 313 315 316 315 315 316 317 318
265 266 265 262 255 254 242 236 227 236 229 242 244 251 255 251 243 236 245 247 247 260 268 264 256 259 265 271 276 285 300 309 308 310 314 317 318 318 319 321 323 324 324 324
265 264 259 249 239 243 240 237 226 228 237 247 241 236 251 250 254 252 239 235 241 246 248 246 251 257 263 274 293 308 308 309 314 318 320 321 324 326 327 327 327 328 328 329
263 253 248 243 233 228 232 229 227 234 237 237 219 226 244 231 252 226 217 229 234 232 237 241 247 270 294 311 312 311 316 318 320 323 327 329 329 330 329 329 330 331 330 330
264 260 234 233 234 235 236 232 227 228 228 214 214 213 210 219 213 213 215 209 210 211 221 250 281 301 307 312 316 319 320 323 327 329 330 331 331 331 330 331 331 330 330 331
253 247 249 218 238 245 243 226 209 197 198 182 182 197 195 197 194 182 195 199 214 234 279 311 309 311 317 319 320 323 326 329 330 332 332 332 331 331 331 330 329 330 333 335
247 243 220 214 249 245 221 189 173 163 163 166 163 162 158 163 177 183 199 214 296 346 314 307 312 315 319 324 327 329 332 332 331 332 331 332 332 330 329 330 332 334 335 336
220 206 192 185 188 173 161 153 151 151 158 157 153 153 160 172 185 177 44 359 309 293 300 310 317 323 328 329 329 329 329 331 332 332 332 331 331 331 331 332 334 335 336 334
137 138 137 132 138 138 139 135 143 139 139 148 157 164 162 125 64 354 293 287 295 305 315 321 323 325 325 326 327 329 331 333 332 331 331 332 332 333 333 334 335 334 332 332
126 126 129 135 133 133 134 139 148 156 159 167 148 93 59 354 285 281 284 291 303 313 317 318 321 323 324 326 330 332 331 330 330 331 331 332 333 334 335 335 332 329 329 329
Height
3020 3021 3022 3020 3019 3018 3015 3014 3014 3018 3017 3022 3025 3029 3031 3033 3034 3034 3038 3041 3043 3044 3046 3048 3050 3051 3052 3053 3053 3054 3055 3057 3059 3061 3062 3064 3065 3067 3068 3068 3068 3068 3068 3068
3013 3016 3017 3014 3011 3011 3007 3009 3006 3011 3010 3017 3021 3022 3024 3026 3029 3031 3032 3035 3038 3040 3042 3043 3045 3047 3048 3049 3050 3051 3052 3053 3055 3056 3057 3058 3059 3060 3060 3060 3060 3059 3059 3058
3008 3011 3012 3007 3004 3004 2999 3000 2999 2999 3005 3011 3013 3015 3017 3020 3021 3023 3025 3028 3032 3034 3035 3037 3039 3041 3043 3044 3045 3046 3047 3048 3049 3049 3050 3051 3052 3052 3052 3052 3051 3051 3050 3049
3005 3008 3004 2989 2996 2995 2992 2987 2992 2993 2998 3003 3004 3006 3008 3009 3011 3013 3017 3020 3022 3026 3029 3029 3031 3033 3035 3038 3039 3040 3041 3042 3042 3043 3043 3043 3043 3044 3044 3044 3043 3042 3041 3039
3004 3001 2992 2983 2986 2990 2986 2979 2986 2985 2989 2992 2994 2996 2994 3000 3003 3004 3007 3010 3013 3016 3018 3020 3024 3025 3028 3030 3032 3033 3034 3034 3034 3035 3035 3036 3036 3036 3035 3034 3033 3032 3030 3029
3001 2999 2988 2981 2982 2983 2984 2976 2978 2977 2980 2981 2983 2981 2979 2995 2995 2996 2998 3001 3003 3005 3008 3011 3013 3016 3019 3022 3024 3025 3027 3027 3027 3028 3028 3028 3028 3027 3026 3025 3024 3022 3020 3018
2996 2995 2984 2982 2980 2980 2982 2977 2975 2973 2972 2975 2975 2975 2974 2977 2982 2984 2987 2989 2992 2996 2999 3003 3007 3008 3010 3013 3016 3018 3019 3020 3020 3020 3020 3020 3019 3018 3016 3015 3013 3012 3011 3010
2987 2988 2983 2980 2978 2979 2976 2971 2969 2969 2967 2968 2969 2970 2968 2969 2974 2976 2979 2980 2981 2985 2990 2995 2996 2999 3002 3005 3007 3009 3010 3011 3012 3012 3012 3010 3009 3007 3005 3004 3003 3003 3002 3001
2980 2977 2970 2975 2974 2972 2970 2968 2966 2962 2961 2963 2964 2965 2965 2965 2967 2971 2972 2974 2975 2978 2983 2987 2989 2991 2993 2997 2999 3000 3002 3002 3003 3003 3003 3001 2999 2998 2997 2996 2995 2994 2993 2991
2973 2971 2972 2971 2970 2969 2968 2964 2961 2960 2959 2957 2958 2958 2959 2960 2962 2963 2966 2969 2972 2975 2977 2981 2984 2986 2989 2993 2994 2994 2994 2994 2994 2994 2994 2992 2990 2989 2988 2987 2987 2986 2985 2983
2964 2964 2965 2965 2966 2964 2963 2962 2958 2956 2955 2953 2951 2951 2952 2953 2956 2956 2958 2964 2967 2972 2974 2977 2979 2980 2981 2983 2984 2985 2985 2985 2987 2986 2985 2984 2983 2982 2981 2980 2980 2979 2977 2976
2958 2961 2961 2959 2962 2961 2959 2957 2956 2955 2953 2951 2947 2946 2946 2947 2950 2953 2955 2958 2962 2964 2968 2970 2972 2972 2973 2973 2975 2978 2978 2978 2979 2979 2978 2977 2976 2975 2974 2973 2973 2971 2969 2967
2954 2956 2956 2955 2957 2957 2958 2956 2954 2952 2951 2950 2945 2943 2942 2940 2946 2949 2953 2954 2957 2960 2962 2964 2965 2966 2966 2969 2969 2970 2970 2971 2972 2972 2971 2969 2968 2968 2966 2965 2964 2962 2959 2956
2952 2951 2950 2951 2949 2950 2951 2950 2949 2948 2948 2947 2943 2941 2943 2940 2942 2946 2949 2951 2952 2952 2953 2955 2956 2957 2959 2962 2965 2965 2964 2964 2966 2965 2965 2964 2962 2960 2958 2956 2954 2953 2950 2947
2947 2947 2946 2945 2945 2943 2946 2945 2945 2945 2946 2946 2945 2943 2942 2943 2945 2947 2947 2947 2949 2950 2950 2951 2953 2955 2956 2958 2959 2959 2959 2960 2960 2960 2959 2957 2955 2952 2951 2949 2947 2944 2941 2938
2939 2940 2941 2941 2940 2938 2939 2940 2941 2941 2941 2942 2942 2942 2942 2942 2942 2943 2945 2946 2946 2946 2946 2946 2947 2950 2951 2951 2953 2953 2954 2955 2954 2954 2952 2950 2948 2946 2944 2942 2940 2936 2933 2929
2930 2932 2932 2932 2931 2931 2932 2935 2936 2936 2937 2939 2939 2938 2938 2938 2939 2939 2940 2940 2940 2940 2941 2942 2943 2945 2947 2947 2947 2948 2949 2949 2948 2946 2945 2944 2942 2940 2937 2934 2930 2927 2923 2919
2922 2922 2922 2922 2923 2925 2926 2927 2929 2930 2932 2934 2935 2935 2935 2935 2935 2936 2937 2937 2938 2939 2940 2941 2942 2942 2942 2942 2943 2943 2943 2942 2942 2942 2940 2937 2935 2932 2928 2925 2921 2917 2912 2907
2913 2912 2913 2913 2914 2916 2918 2921 2923 2925 2927 2929 2930 2930 2931 2932 2932 2933 2933 2935 2935 2935 2936 2937 2937 2938 2938 2938 2938 2937 2938 2937 2937 2935 2932 2930 2927 2924 2921 2917 2912 2907 2902 2897
2903 2903 2903 2906 2907 2909 2911 2914 2917 2919 2922 2924 2925 2926 2926 2928 2929 2930 2929 2930 2930 2931 2932 2933 2934 2934 2934 2933 2933 2933 2933 2932 2930 2927 2925 2922 2919 2915 2912 2908 2903 2898 2893 2888
2895 2896 2897 2898 2901 2904 2905 2907 2910 2911 2913 2915 2915 2919 2921 2923 2924 2924 2925 2927 2927 2927 2928 2930 2930 2930 2930 2929 2928 2927 2926 2925 2923 2920 2917 2914 2912 2908 2904 2900 2895 2890 2886 2881
2891 2891 2892 2894 2895 2896 2898 2899 2901 2904 2907 2907 2910 2913 2914 2917 2919 2919 2922 2924 2923 2924 2925 2926 2926 2927 2926 2924 2923 2922 2921 2919 2916 2913 2910 2907 2904 2901 2898 2893 2889 2885 2881 2876
2887 2887 2887 2888 2889 2890 2891 2892 2893 2896 2899 2900 2904 2908 2911 2913 2915 2918 2920 2920 2921 2923 2924 2923 2923 2922 2921 2920 2919 2917 2915 2913 2910 2907 2904 2902 2899 2895 2891 2888 2884 2879 2874 2868
2883 2883 2883 2885 2886 2886 2888 2890 2893 2894 2898 2901 2905 2908 2910 2912 2915 2917 2918 2919 2919 2920 2921 2921 2920 2919 2918 2916 2913 2911 2910 2908 2905 2902 2899 2896 2893 2890 2886 2882 2877 2872 2868 2863
2880 2881 2882 2884 2886 2888 2891 2893 2896 2900 2903 2905 2907 2910 2912 2913 2915 2915 2915 2916 2918 2918 2918 2917 2916 2914 2912 2910 2908 2907 2906 2902 2899 2896 2893 2891 2887 2884 2880 2875 2871 2866 2862 2859
2880 2882 2884 2887 2890 2892 2895 2898 2901 2903 2906 2908 2910 2911 2911 2912 2913 2914 2915 2915 2915 2915 2914 2912 2911 2910 2908 2907 2905 2903 2900 2897 2894 2891 2889 2885 2882 2878 2874 2869 2865 2861 2858 2855
2884 2887 2889 2891 2894 2896 2899 2901 2903 2905 2906 2907 2908 2909 2910 2911 2912 2912 2912 2912 2912 2911 2910 2909 2908 2906 2904 2902 2900 2897 2895 2892 2890 2887 2884 2880 2876 2872 2867 2863 2860 2857 2854 2850